| time (UTC) | temp C | wind direction | speed KPH | gust KPH | rain 1hr cm | rain 24hr cm | rain mn cm | humidity % | barometer mb |
| 20260902213050 | 22 | 186 | 35.4 | 0.0 | 0.00 | 0.00 | 0.05 | 22 | 1001.2 |
| 20260902212552 | 22 | 135 | 35.4 | 0.0 | 0.00 | 0.00 | 0.05 | 23 | 1001.3 |
| 20260902212016 | 21 | 155 | 37.0 | 0.0 | 0.00 | 0.00 | 0.05 | 24 | 1001.3 |
| 20260902211535 | 22 | 168 | 37.0 | 0.0 | 0.00 | 0.00 | 0.05 | 23 | 1001.4 |
| 20260902211052 | 22 | 195 | 38.6 | 0.0 | 0.00 | 0.00 | 0.05 | 21 | 1001.3 |
| 20260902210511 | 22 | 186 | 38.6 | 0.0 | 0.00 | 0.00 | 0.05 | 21 | 1001.1 |
| 20260902210036 | 22 | 194 | 37.0 | 0.0 | 0.00 | 0.00 | 0.05 | 22 | 1001.2 |
| 20260902205543 | 22 | 175 | 33.8 | 0.0 | 0.00 | 0.00 | 0.05 | 21 | 1001.2 |
| 20260902205001 | 22 | 171 | 37.0 | 0.0 | 0.00 | 0.00 | 0.05 | 21 | 1001.2 |
| 20260902204517 | 22 | 222 | 35.4 | 0.0 | 0.00 | 0.00 | 0.05 | 21 | 1001.2 |
| 20260902204033 | 22 | 208 | 33.8 | 0.0 | 0.00 | 0.00 | 0.05 | 19 | 1001.2 |
| 20260902203559 | 22 | 179 | 35.4 | 0.0 | 0.00 | 0.00 | 0.05 | 20 | 1001.3 |
| 20260902203001 | 22 | 187 | 35.4 | 0.0 | 0.00 | 0.00 | 0.05 | 20 | 1000.9 |
| 20260902202522 | 22 | 198 | 38.6 | 0.0 | 0.00 | 0.00 | 0.05 | 20 | 1001.1 |
| 20260902202031 | 22 | 180 | 41.8 | 0.0 | 0.00 | 0.00 | 0.05 | 19 | 1000.9 |
| 20260902201546 | 22 | 205 | 43.5 | 0.0 | 0.00 | 0.00 | 0.05 | 19 | 1000.8 |
| 20260902201006 | 22 | 208 | 41.8 | 0.0 | 0.00 | 0.00 | 0.05 | 19 | 1000.6 |
| 20260902200527 | 22 | 176 | 40.2 | 0.0 | 0.00 | 0.00 | 0.05 | 19 | 1000.6 |
| 20260902200040 | 22 | 150 | 40.2 | 0.0 | 0.00 | 0.00 | 0.05 | 18 | 1000.8 |
| 20260902195555 | 22 | 167 | 40.2 | 0.0 | 0.00 | 0.00 | 0.05 | 19 | 1000.8 |
| 20260902195003 | 22 | 190 | 40.2 | 0.0 | 0.00 | 0.00 | 0.05 | 19 | 1000.6 |
| 20260902194524 | 22 | 188 | 41.8 | 0.0 | 0.00 | 0.00 | 0.05 | 19 | 1000.8 |
| 20260902194035 | 22 | 208 | 43.5 | 0.0 | 0.00 | 0.00 | 0.05 | 19 | 1000.7 |
| 20260902193552 | 22 | 134 | 43.5 | 0.0 | 0.00 | 0.00 | 0.05 | 19 | 1000.6 |
| 20260902193102 | 22 | 173 | 40.2 | 0.0 | 0.00 | 0.00 | 0.05 | 19 | 1000.9 |
| 20260902192513 | 22 | 180 | 40.2 | 0.0 | 0.00 | 0.00 | 0.05 | 18 | 1000.8 |
| 20260902192026 | 22 | 186 | 41.8 | 0.0 | 0.00 | 0.00 | 0.05 | 19 | 1000.9 |
| 20260902191533 | 22 | 204 | 38.6 | 0.0 | 0.00 | 0.00 | 0.05 | 19 | 1001.0 |
| 20260902191044 | 22 | 171 | 38.6 | 0.0 | 0.00 | 0.00 | 0.05 | 19 | 1000.9 |
| 20260902190555 | 22 | 184 | 40.2 | 0.0 | 0.00 | 0.00 | 0.05 | 19 | 1000.7 |
| 20260902190010 | 22 | 167 | 38.6 | 0.0 | 0.00 | 0.00 | 0.05 | 23 | 1000.8 |
| 20260902185527 | 22 | 178 | 37.0 | 0.0 | 0.00 | 0.00 | 0.05 | 23 | 1000.7 |
| 20260902185042 | 22 | 225 | 37.0 | 0.0 | 0.00 | 0.00 | 0.05 | 26 | 1000.9 |
| 20260902184547 | 22 | 150 | 40.2 | 0.0 | 0.00 | 0.00 | 0.05 | 25 | 1000.8 |
| 20260902184100 | 22 | 180 | 41.8 | 0.0 | 0.00 | 0.00 | 0.05 | 26 | 1000.9 |
| 20260902183513 | 22 | 159 | 40.2 | 0.0 | 0.00 | 0.00 | 0.05 | 27 | 1000.9 |
| 20260902183028 | 22 | 168 | 38.6 | 0.0 | 0.00 | 0.00 | 0.05 | 23 | 1000.9 |
| 20260902182543 | 22 | 181 | 40.2 | 0.0 | 0.00 | 0.00 | 0.05 | 26 | 1001.1 |
| 20260902182056 | 22 | 186 | 37.0 | 0.0 | 0.00 | 0.00 | 0.05 | 27 | 1001.3 |
| 20260902181504 | 22 | 182 | 33.8 | 0.0 | 0.00 | 0.00 | 0.05 | 29 | 1001.4 |
| 20260902181020 | 22 | 178 | 33.8 | 0.0 | 0.00 | 0.00 | 0.05 | 30 | 1001.5 |
| 20260902180542 | 22 | 175 | 35.4 | 0.0 | 0.00 | 0.00 | 0.05 | 29 | 1001.2 |
| 20260902180054 | 22 | 175 | 33.8 | 0.0 | 0.00 | 0.00 | 0.05 | 30 | 1001.3 |
| 20260902175509 | 22 | 163 | 30.6 | 0.0 | 0.00 | 0.00 | 0.05 | 31 | 1001.3 |
| 20260902175029 | 22 | 198 | 29.0 | 0.0 | 0.00 | 0.00 | 0.05 | 32 | 1001.5 |
| 20260902174537 | 21 | 123 | 29.0 | 0.0 | 0.00 | 0.00 | 0.05 | 35 | 1001.4 |
| 20260902174052 | 21 | 163 | 29.0 | 0.0 | 0.00 | 0.00 | 0.05 | 37 | 1001.5 |
| 20260902173557 | 21 | 170 | 32.2 | 0.0 | 0.00 | 0.00 | 0.05 | 35 | 1001.7 |
| 20260902173015 | 21 | 195 | 37.0 | 0.0 | 0.00 | 0.00 | 0.05 | 36 | 1001.7 |
| 20260902172531 | 21 | 165 | 35.4 | 0.0 | 0.00 | 0.00 | 0.05 | 35 | 1001.7 |
| 20260902172037 | 21 | 183 | 33.8 | 0.0 | 0.00 | 0.00 | 0.05 | 35 | 1001.5 |
| 20260902171555 | 21 | 174 | 32.2 | 0.0 | 0.00 | 0.00 | 0.05 | 37 | 1001.7 |
| 20260902171012 | 21 | 144 | 32.2 | 0.0 | 0.00 | 0.00 | 0.05 | 36 | 1001.6 |
| 20260902170529 | 21 | 205 | 32.2 | 0.0 | 0.00 | 0.00 | 0.05 | 38 | 1001.8 |
| 20260902170042 | 21 | 159 | 29.0 | 0.0 | 0.00 | 0.00 | 0.05 | 37 | 1001.9 |
| 20260902165554 | 20 | 200 | 25.7 | 0.0 | 0.00 | 0.00 | 0.05 | 42 | 1001.8 |
| 20260902165103 | 20 | 171 | 24.1 | 0.0 | 0.00 | 0.00 | 0.05 | 42 | 1001.7 |
| 20260902164515 | 21 | 173 | 25.7 | 0.0 | 0.00 | 0.00 | 0.05 | 43 | 1001.7 |
| 20260902164026 | 20 | 141 | 25.7 | 0.0 | 0.00 | 0.00 | 0.05 | 43 | 1001.5 |
| 20260902163532 | 20 | 157 | 25.7 | 0.0 | 0.00 | 0.00 | 0.05 | 45 | 1001.6 |
| 20260902163039 | 20 | 169 | 25.7 | 0.0 | 0.00 | 0.00 | 0.05 | 44 | 1001.7 |
| 20260902162550 | 20 | 121 | 24.1 | 0.0 | 0.00 | 0.00 | 0.05 | 45 | 1001.5 |
| 20260902162057 | 19 | 169 | 22.5 | 0.0 | 0.00 | 0.00 | 0.05 | 48 | 1001.8 |
| 20260902161505 | 18 | 198 | 24.1 | 0.0 | 0.00 | 0.00 | 0.05 | 52 | 1001.9 |
| 20260902161024 | 18 | 164 | 25.7 | 0.0 | 0.00 | 0.00 | 0.05 | 52 | 1002.1 |
| 20260902160547 | 18 | 178 | 25.7 | 0.0 | 0.00 | 0.00 | 0.05 | 53 | 1002.1 |
| 20260902160055 | 18 | 175 | 25.7 | 0.0 | 0.00 | 0.00 | 0.05 | 53 | 1002.1 |
| 20260902155512 | 18 | 186 | 25.7 | 0.0 | 0.00 | 0.00 | 0.05 | 54 | 1001.9 |
| 20260902155022 | 18 | 180 | 24.1 | 0.0 | 0.00 | 0.00 | 0.05 | 53 | 1001.9 |
| 20260902154536 | 18 | 198 | 24.1 | 0.0 | 0.00 | 0.00 | 0.05 | 54 | 1002.0 |
| 20260902154041 | 17 | 193 | 25.7 | 0.0 | 0.00 | 0.00 | 0.05 | 55 | 1001.9 |
| 20260902153552 | 17 | 165 | 24.1 | 0.0 | 0.00 | 0.00 | 0.05 | 58 | 1002.0 |
| 20260902153007 | 17 | 173 | 22.5 | 0.0 | 0.00 | 0.00 | 0.05 | 60 | 1002.0 |
| 20260902152521 | 16 | 182 | 24.1 | 0.0 | 0.00 | 0.00 | 0.05 | 61 | 1002.1 |
| 20260902152036 | 16 | 174 | 24.1 | 0.0 | 0.00 | 0.00 | 0.05 | 63 | 1002.1 |
| 20260902151547 | 16 | 191 | 22.5 | 0.0 | 0.00 | 0.00 | 0.05 | 64 | 1002.2 |
| 20260902151101 | 16 | 175 | 20.9 | 0.0 | 0.00 | 0.00 | 0.05 | 65 | 1002.2 |
| 20260902150512 | 16 | 196 | 22.5 | 0.0 | 0.00 | 0.00 | 0.05 | 65 | 1002.3 |
| 20260902150022 | 16 | 163 | 22.5 | 0.0 | 0.00 | 0.00 | 0.05 | 63 | 1002.3 |
| 20260902145529 | 16 | 167 | 22.5 | 0.0 | 0.00 | 0.00 | 0.05 | 63 | 1002.6 |
| 20260902145034 | 15 | 178 | 24.1 | 0.0 | 0.00 | 0.00 | 0.05 | 66 | 1002.7 |
| 20260902144545 | 15 | 163 | 25.7 | 0.0 | 0.00 | 0.00 | 0.05 | 66 | 1002.7 |
| 20260902144059 | 15 | 158 | 24.1 | 0.0 | 0.00 | 0.00 | 0.05 | 68 | 1002.7 |
| 20260902143521 | 14 | 149 | 22.5 | 0.0 | 0.00 | 0.00 | 0.05 | 71 | 1002.7 |
| 20260902143037 | 13 | 140 | 22.5 | 0.0 | 0.00 | 0.00 | 0.05 | 71 | 1002.8 |
| 20260902142554 | 13 | 171 | 22.5 | 0.0 | 0.00 | 0.00 | 0.05 | 72 | 1002.8 |
| 20260902142103 | 13 | 153 | 22.5 | 0.0 | 0.00 | 0.00 | 0.05 | 73 | 1002.7 |
| 20260902141514 | 12 | 173 | 19.3 | 0.0 | 0.00 | 0.00 | 0.05 | 74 | 1002.7 |
| 20260902141046 | 12 | 159 | 17.7 | 0.0 | 0.00 | 0.00 | 0.05 | 74 | 1002.7 |
| 20260902140605 | 12 | 161 | 17.7 | 0.0 | 0.00 | 0.00 | 0.05 | 73 | 1002.7 |
| 20260902140021 | 12 | 144 | 20.9 | 0.0 | 0.00 | 0.00 | 0.05 | 73 | 1002.6 |
| 20260902135541 | 12 | 188 | 22.5 | 0.0 | 0.00 | 0.00 | 0.05 | 73 | 1002.6 |
| 20260902135055 | 12 | 157 | 24.1 | 0.0 | 0.00 | 0.00 | 0.05 | 73 | 1002.7 |
| 20260902134513 | 12 | 169 | 22.5 | 0.0 | 0.00 | 0.00 | 0.05 | 74 | 1002.7 |
| 20260902134035 | 12 | 179 | 19.3 | 0.0 | 0.00 | 0.00 | 0.05 | 75 | 1002.7 |
| 20260902133547 | 12 | 137 | 17.7 | 0.0 | 0.00 | 0.00 | 0.03 | 77 | 1002.7 |
| 20260902133058 | 11 | 137 | 17.7 | 0.0 | 0.00 | 0.00 | 0.03 | 78 | 1002.8 |
| 20260902132504 | 11 | 138 | 17.7 | 0.0 | 0.00 | 0.00 | 0.03 | 78 | 1002.7 |
| 20260902132012 | 11 | 146 | 19.3 | 0.0 | 0.00 | 0.00 | 0.03 | 78 | 1002.7 |
| 20260902131535 | 11 | 125 | 17.7 | 0.0 | 0.00 | 0.00 | 0.03 | 78 | 1002.7 |
| 20260902131056 | 11 | 160 | 16.1 | 0.0 | 0.00 | 0.00 | 0.03 | 79 | 1002.7 |
| 20260902130512 | 11 | 189 | 17.7 | 0.0 | 0.00 | 0.00 | 0.03 | 78 | 1002.8 |
| 20260902130032 | 11 | 152 | 14.5 | 0.0 | 0.00 | 0.00 | 0.03 | 78 | 1002.7 |
| 20260902125542 | 11 | 144 | 12.9 | 0.0 | 0.00 | 0.00 | 0.03 | 79 | 1002.8 |
| 20260902125055 | 11 | 170 | 16.1 | 0.0 | 0.00 | 0.00 | 0.03 | 80 | 1002.8 |
| 20260902124509 | 11 | 148 | 19.3 | 0.0 | 0.00 | 0.00 | 0.03 | 79 | 1002.9 |
| 20260902124028 | 11 | 151 | 19.3 | 0.0 | 0.00 | 0.00 | 0.03 | 79 | 1002.9 |
| 20260902123538 | 11 | 163 | 17.7 | 0.0 | 0.00 | 0.00 | 0.03 | 79 | 1002.8 |
| 20260902123049 | 11 | 149 | 17.7 | 0.0 | 0.00 | 0.00 | 0.03 | 78 | 1002.9 |
| 20260902122504 | 11 | 152 | 19.3 | 0.0 | 0.00 | 0.00 | 0.03 | 79 | 1002.9 |
| 20260902122017 | 11 | 168 | 17.7 | 0.0 | 0.00 | 0.00 | 0.03 | 80 | 1002.9 |
| 20260902121526 | 10 | 182 | 12.9 | 0.0 | 0.00 | 0.00 | 0.03 | 82 | 1003.1 |
| 20260902121039 | 10 | 172 | 12.9 | 0.0 | 0.00 | 0.00 | 0.03 | 83 | 1003.1 |
| 20260902120556 | 10 | 210 | 14.5 | 0.0 | 0.00 | 0.00 | 0.03 | 81 | 1003.2 |
| 20260902120006 | 10 | 209 | 12.9 | 0.0 | 0.00 | 0.00 | 0.03 | 82 | 1003.2 |
| 20260902115516 | 10 | 197 | 12.9 | 0.0 | 0.00 | 0.00 | 0.03 | 84 | 1003.3 |
| 20260902115036 | 10 | 160 | 11.3 | 0.0 | 0.00 | 0.00 | 0.03 | 85 | 1003.4 |
| 20260902114615 | 9 | 196 | 11.3 | 0.0 | 0.00 | 0.00 | 0.03 | 86 | 1003.5 |
| 20260902114106 | 9 | 200 | 11.3 | 0.0 | 0.00 | 0.00 | 0.03 | 88 | 1003.7 |
| 20260902113508 | 8 | 203 | 9.7 | 0.0 | 0.00 | 0.00 | 0.03 | 89 | 1003.9 |
| 20260902113017 | 8 | 206 | 9.7 | 0.0 | 0.00 | 0.00 | 0.03 | 89 | 1003.9 |
| 20260902112538 | 8 | 204 | 9.7 | 0.0 | 0.00 | 0.00 | 0.03 | 89 | 1004.0 |
| 20260902112049 | 8 | 205 | 9.7 | 0.0 | 0.00 | 0.00 | 0.03 | 89 | 1004.0 |
| 20260902111510 | 8 | 202 | 11.3 | 0.0 | 0.00 | 0.00 | 0.03 | 89 | 1004.1 |
| 20260902111019 | 8 | 205 | 9.7 | 0.0 | 0.00 | 0.00 | 0.03 | 89 | 1004.1 |
| 20260902110534 | 8 | 226 | 8.0 | 0.0 | 0.00 | 0.00 | 0.03 | 89 | 1004.3 |
| 20260902110050 | 8 | 235 | 6.4 | 0.0 | 0.00 | 0.00 | 0.03 | 87 | 1004.3 |
| 20260902105557 | 8 | 196 | 4.8 | 0.0 | 0.00 | 0.00 | 0.03 | 86 | 1004.4 |
| 20260902105003 | 8 | 179 | 1.6 | 0.0 | 0.00 | 0.00 | 0.03 | 86 | 1004.4 |
| 20260902104532 | 9 | 179 | 3.2 | 0.0 | 0.00 | 0.00 | 0.03 | 87 | 1004.4 |
| 20260902104045 | 8 | 179 | 6.4 | 0.0 | 0.00 | 0.00 | 0.03 | 88 | 1004.5 |
| 20260902103555 | 8 | 179 | 6.4 | 0.0 | 0.00 | 0.00 | 0.03 | 88 | 1004.4 |
| 20260902103019 | 8 | 179 | 8.0 | 0.0 | 0.00 | 0.00 | 0.03 | 87 | 1004.5 |
| 20260902102542 | 8 | 179 | 4.8 | 0.0 | 0.00 | 0.00 | 0.03 | 86 | 1004.5 |
| 20260902102051 | 8 | 178 | 4.8 | 0.0 | 0.00 | 0.00 | 0.03 | 86 | 1004.5 |
| 20260902101508 | 8 | 178 | 6.4 | 0.0 | 0.00 | 0.00 | 0.03 | 87 | 1004.5 |
| 20260902101025 | 8 | 178 | 8.0 | 0.0 | 0.00 | 0.00 | 0.03 | 87 | 1004.6 |
| 20260902100546 | 8 | 177 | 8.0 | 0.0 | 0.00 | 0.00 | 0.03 | 88 | 1004.6 |
| 20260902100013 | 8 | 164 | 8.0 | 0.0 | 0.00 | 0.00 | 0.03 | 88 | 1004.7 |
| 20260902095523 | 8 | 166 | 6.4 | 0.0 | 0.00 | 0.00 | 0.03 | 88 | 1004.8 |
| 20260902095031 | 8 | 188 | 6.4 | 0.0 | 0.00 | 0.00 | 0.03 | 88 | 1004.9 |
| 20260902094542 | 8 | 222 | 6.4 | 0.0 | 0.00 | 0.00 | 0.03 | 88 | 1004.9 |
| 20260902094102 | 8 | 222 | 4.8 | 0.0 | 0.00 | 0.00 | 0.03 | 87 | 1005.0 |
| 20260902093515 | 8 | 222 | 4.8 | 0.0 | 0.00 | 0.00 | 0.03 | 87 | 1005.1 |
| 20260902093029 | 8 | 222 | 4.8 | 0.0 | 0.00 | 0.00 | 0.03 | 86 | 1005.1 |
| 20260902092541 | 9 | 222 | 4.8 | 0.0 | 0.00 | 0.00 | 0.03 | 85 | 1005.1 |
| 20260902092052 | 9 | 222 | 6.4 | 0.0 | 0.00 | 0.00 | 0.03 | 85 | 1005.1 |
| 20260902091512 | 10 | 222 | 6.4 | 0.0 | 0.00 | 0.00 | 0.03 | 84 | 1005.0 |
| 20260902091027 | 10 | 222 | 6.4 | 0.0 | 0.00 | 0.00 | 0.03 | 84 | 1005.0 |
| 20260902090542 | 10 | 222 | 8.0 | 0.0 | 0.00 | 0.00 | 0.03 | 84 | 1005.0 |
| 20260902090004 | 10 | 222 | 8.0 | 0.0 | 0.00 | 0.00 | 0.03 | 84 | 1005.1 |
| 20260902085516 | 10 | 242 | 4.8 | 0.0 | 0.00 | 0.00 | 0.03 | 83 | 1005.1 |
| 20260902085028 | 11 | 306 | 4.8 | 0.0 | 0.00 | 0.00 | 0.03 | 84 | 1005.2 |
| 20260902084552 | 11 | 306 | 4.8 | 0.0 | 0.00 | 0.00 | 0.03 | 84 | 1005.3 |
| 20260902084001 | 11 | 311 | 3.2 | 0.0 | 0.00 | 0.00 | 0.03 | 83 | 1005.3 |
| 20260902083526 | 11 | 179 | 3.2 | 0.0 | 0.00 | 0.00 | 0.03 | 84 | 1005.2 |
| 20260902083040 | 11 | 179 | 3.2 | 0.0 | 0.00 | 0.00 | 0.03 | 84 | 1005.4 |
| 20260902082600 | 11 | 182 | 4.8 | 0.0 | 0.00 | 0.00 | 0.03 | 84 | 1005.4 |
| 20260902082003 | 11 | 148 | 6.4 | 0.0 | 0.00 | 0.00 | 0.03 | 84 | 1005.4 |
| 20260902081514 | 11 | 159 | 8.0 | 0.0 | 0.00 | 0.00 | 0.03 | 85 | 1005.2 |
| 20260902081029 | 10 | 204 | 6.4 | 0.0 | 0.00 | 0.00 | 0.03 | 85 | 1005.4 |
| 20260902080541 | 10 | 217 | 6.4 | 0.0 | 0.00 | 0.00 | 0.03 | 85 | 1005.4 |
| 20260902080057 | 10 | 184 | 6.4 | 0.0 | 0.00 | 0.00 | 0.03 | 84 | 1005.3 |
| 20260902075602 | 10 | 183 | 8.0 | 0.0 | 0.00 | 0.00 | 0.03 | 83 | 1005.2 |
| 20260902075007 | 10 | 184 | 9.7 | 0.0 | 0.00 | 0.00 | 0.03 | 83 | 1005.0 |
| 20260902074520 | 10 | 187 | 9.7 | 0.0 | 0.00 | 0.00 | 0.03 | 83 | 1004.8 |
| 20260902074033 | 10 | 200 | 8.0 | 0.0 | 0.00 | 0.00 | 0.03 | 82 | 1005.0 |
| 20260902073541 | 11 | 201 | 8.0 | 0.0 | 0.00 | 0.00 | 0.03 | 81 | 1004.9 |
| 20260902073107 | 11 | 205 | 8.0 | 0.0 | 0.00 | 0.00 | 0.03 | 80 | 1004.9 |
| 20260902072506 | 11 | 232 | 8.0 | 0.0 | 0.00 | 0.00 | 0.03 | 79 | 1005.0 |
| 20260902072035 | 11 | 234 | 9.7 | 0.0 | 0.00 | 0.00 | 0.03 | 79 | 1004.9 |
| 20260902071548 | 11 | 229 | 9.7 | 0.0 | 0.00 | 0.00 | 0.03 | 79 | 1005.0 |
| 20260902071056 | 11 | 209 | 8.0 | 0.0 | 0.00 | 0.00 | 0.03 | 78 | 1005.0 |
| 20260902070605 | 11 | 169 | 8.0 | 0.0 | 0.00 | 0.00 | 0.03 | 77 | 1005.1 |
| 20260902070009 | 12 | 167 | 8.0 | 0.0 | 0.00 | 0.00 | 0.03 | 76 | 1004.9 |
| 20260902065531 | 12 | 127 | 6.4 | 0.0 | 0.00 | 0.00 | 0.03 | 76 | 1004.8 |
| 20260902065051 | 12 | 243 | 8.0 | 0.0 | 0.00 | 0.00 | 0.03 | 74 | 1004.8 |
| 20260902064613 | 12 | 240 | 9.7 | 0.0 | 0.00 | 0.00 | 0.03 | 72 | 1004.7 |
| 20260902064017 | 12 | 246 | 9.7 | 0.0 | 0.00 | 0.00 | 0.00 | 72 | 1004.7 |
| 20260902063536 | 12 | 246 | 8.0 | 0.0 | 0.00 | 0.00 | 0.00 | 73 | 1004.6 |
| 20260902063046 | 13 | 248 | 9.7 | 0.0 | 0.00 | 0.00 | 0.00 | 73 | 1004.4 |
| 20260902062559 | 13 | 247 | 9.7 | 0.0 | 0.00 | 0.00 | 0.00 | 74 | 1004.9 |
| 20260902062010 | 13 | 224 | 8.0 | 0.0 | 0.00 | 0.00 | 0.00 | 72 | 1005.1 |
| 20260902061522 | 13 | 170 | 6.4 | 0.0 | 0.00 | 0.00 | 0.00 | 72 | 1004.9 |
| 20260902061042 | 13 | 148 | 9.7 | 0.0 | 0.00 | 0.00 | 0.00 | 73 | 1004.9 |
| 20260902060556 | 13 | 144 | 11.3 | 0.0 | 0.00 | 0.00 | 0.00 | 73 | 1005.2 |
| 20260902060002 | 13 | 124 | 9.7 | 0.0 | 0.00 | 0.00 | 0.03 | 72 | 1005.3 |
| 20260902055512 | 13 | 127 | 14.5 | 0.0 | 0.00 | 0.00 | 0.03 | 72 | 1005.2 |
| 20260902055034 | 13 | 146 | 20.9 | 0.0 | 0.00 | 0.00 | 0.03 | 70 | 1004.9 |
| 20260902054558 | 13 | 227 | 29.0 | 0.0 | 0.00 | 0.00 | 0.03 | 66 | 1005.4 |
| 20260902054005 | 14 | 240 | 22.5 | 0.0 | 0.00 | 0.00 | 0.03 | 63 | 1005.0 |
| 20260902053520 | 15 | 254 | 11.3 | 0.0 | 0.00 | 0.00 | 0.03 | 61 | 1004.9 |
| 20260902053044 | 15 | 184 | 12.9 | 0.0 | 0.00 | 0.00 | 0.03 | 57 | 1005.0 |
| 20260902052505 | 14 | 127 | 14.5 | 0.0 | 0.00 | 0.00 | 0.03 | 64 | 1005.0 |
| 20260902052028 | 14 | 177 | 19.3 | 0.0 | 0.00 | 0.00 | 0.00 | 63 | 1005.4 |
| 20260902051538 | 15 | 173 | 29.0 | 0.0 | 0.00 | 0.00 | 0.00 | 59 | 1005.5 |
| 20260902051049 | 16 | 124 | 33.8 | 0.0 | 0.00 | 0.00 | 0.00 | 50 | 1005.4 |
| 20260902050514 | 16 | 175 | 35.4 | 0.0 | 0.00 | 0.00 | 0.00 | 50 | 1005.1 |
| 20260902050038 | 16 | 167 | 33.8 | 0.0 | 0.00 | 0.00 | 0.00 | 51 | 1005.1 |
| 20260902045546 | 16 | 167 | 35.4 | 0.0 | 0.00 | 0.00 | 0.00 | 50 | 1005.2 |
| 20260902045100 | 16 | 130 | 33.8 | 0.0 | 0.00 | 0.00 | 0.00 | 48 | 1005.2 |
| 20260902044512 | 17 | 111 | 32.2 | 0.0 | 0.00 | 0.00 | 0.00 | 46 | 1005.4 |
| 20260902044035 | 17 | 146 | 30.6 | 0.0 | 0.00 | 0.00 | 0.00 | 45 | 1005.1 |
| 20260902043547 | 17 | 175 | 30.6 | 0.0 | 0.00 | 0.00 | 0.00 | 45 | 1004.8 |
| 20260902043058 | 17 | 184 | 25.7 | 0.0 | 0.00 | 0.00 | 0.00 | 47 | 1004.2 |
| 20260902042603 | 17 | 182 | 14.5 | 0.0 | 0.00 | 0.00 | 0.00 | 56 | 1003.9 |
| 20260902042020 | 16 | 155 | 12.9 | 0.0 | 0.00 | 0.00 | 0.00 | 56 | 1003.3 |
| 20260902041531 | 16 | 178 | 14.5 | 0.0 | 0.00 | 0.00 | 0.00 | 56 | 1003.3 |
| 20260902041053 | 16 | 188 | 12.9 | 0.0 | 0.00 | 0.00 | 0.00 | 57 | 1003.3 |
| 20260902040505 | 16 | 172 | 12.9 | 0.0 | 0.00 | 0.00 | 0.00 | 58 | 1003.4 |
| 20260902040020 | 15 | 174 | 11.3 | 0.0 | 0.00 | 0.00 | 0.00 | 58 | 1003.4 |
| 20260902035536 | 16 | 184 | 11.3 | 0.0 | 0.00 | 0.00 | 0.00 | 58 | 1003.4 |
| 20260902035015 | 16 | 198 | 12.9 | 0.0 | 0.00 | 0.00 | 0.00 | 57 | 1003.3 |
| 20260902034530 | 16 | 176 | 14.5 | 0.0 | 0.00 | 0.00 | 0.00 | 57 | 1003.2 |
| 20260902034044 | 16 | 169 | 12.9 | 0.0 | 0.00 | 0.00 | 0.00 | 57 | 1003.2 |
| 20260902033555 | 16 | 172 | 11.3 | 0.0 | 0.00 | 0.00 | 0.00 | 56 | 1003.0 |
| 20260902033010 | 16 | 183 | 11.3 | 0.0 | 0.00 | 0.00 | 0.00 | 55 | 1003.0 |
| 20260902032538 | 16 | 186 | 9.7 | 0.0 | 0.00 | 0.00 | 0.00 | 55 | 1002.9 |
| 20260902032048 | 16 | 192 | 8.0 | 0.0 | 0.00 | 0.00 | 0.00 | 54 | 1002.9 |
| 20260902031507 | 16 | 194 | 9.7 | 0.0 | 0.00 | 0.00 | 0.00 | 54 | 1003.0 |
| 20260902031028 | 16 | 198 | 9.7 | 0.0 | 0.00 | 0.00 | 0.00 | 54 | 1003.0 |
| 20260902030539 | 16 | 190 | 11.3 | 0.0 | 0.00 | 0.00 | 0.00 | 54 | 1003.0 |
| 20260902030057 | 16 | 193 | 11.3 | 0.0 | 0.00 | 0.00 | 0.00 | 53 | 1002.9 |
| 20260902025503 | 16 | 177 | 11.3 | 0.0 | 0.00 | 0.00 | 0.00 | 52 | 1003.1 |
| 20260902025018 | 17 | 161 | 11.3 | 0.0 | 0.00 | 0.00 | 0.00 | 51 | 1003.0 |
| 20260902024536 | 17 | 186 | 11.3 | 0.0 | 0.00 | 0.00 | 0.00 | 50 | 1002.9 |
| 20260902024038 | 17 | 168 | 12.9 | 0.0 | 0.00 | 0.00 | 0.00 | 50 | 1002.7 |
| 20260902023108 | 17 | 136 | 12.9 | 0.0 | 0.00 | 0.00 | 0.00 | 50 | 1002.6 |
| 20260902022601 | 17 | 167 | 11.3 | 0.0 | 0.00 | 0.00 | 0.00 | 50 | 1002.7 |
| 20260902022046 | 17 | 157 | 9.7 | 0.0 | 0.00 | 0.00 | 0.00 | 51 | 1002.7 |
| 20260902021544 | 17 | 144 | 9.7 | 0.0 | 0.00 | 0.00 | 0.00 | 51 | 1002.6 |
| 20260902021042 | 17 | 157 | 12.9 | 0.0 | 0.00 | 0.00 | 0.00 | 51 | 1002.7 |
| 20260902020552 | 18 | 145 | 14.5 | 0.0 | 0.00 | 0.00 | 0.00 | 50 | 1002.7 |
| 20260902020003 | 18 | 149 | 12.9 | 0.0 | 0.00 | 0.00 | 0.00 | 49 | 1002.6 |
| 20260902015600 | 18 | 156 | 14.5 | 0.0 | 0.00 | 0.00 | 0.00 | 49 | 1002.6 |
| 20260902015108 | 19 | 129 | 14.5 | 0.0 | 0.00 | 0.00 | 0.00 | 49 | 1002.6 |
| 20260902014553 | 19 | 173 | 14.5 | 0.0 | 0.00 | 0.00 | 0.00 | 48 | 1002.7 |
| 20260902014003 | 20 | 182 | 16.1 | 0.0 | 0.00 | 0.00 | 0.00 | 48 | 1002.5 |
| 20260902013505 | 20 | 157 | 17.7 | 0.0 | 0.00 | 0.00 | 0.00 | 47 | 1002.6 |
| 20260902013018 | 20 | 150 | 19.3 | 0.0 | 0.00 | 0.00 | 0.00 | 46 | 1002.6 |
| 20260902012521 | 20 | 155 | 22.5 | 0.0 | 0.00 | 0.00 | 0.00 | 47 | 1002.6 |
| 20260902012023 | 20 | 123 | 24.1 | 0.0 | 0.00 | 0.00 | 0.00 | 47 | 1002.8 |
| 20260902011534 | 20 | 128 | 24.1 | 0.0 | 0.00 | 0.00 | 0.00 | 47 | 1002.8 |
| 20260902011037 | 21 | 157 | 22.5 | 0.0 | 0.00 | 0.00 | 0.00 | 45 | 1002.6 |
| 20260902010543 | 21 | 127 | 22.5 | 0.0 | 0.00 | 0.00 | 0.00 | 42 | 1002.6 |
| 20260902010055 | 21 | 192 | 22.5 | 0.0 | 0.00 | 0.00 | 0.00 | 43 | 1002.6 |
| 20260902005608 | 21 | 169 | 22.5 | 0.0 | 0.00 | 0.00 | 0.00 | 44 | 1002.6 |
| 20260902005002 | 21 | 184 | 22.5 | 0.0 | 0.00 | 0.00 | 0.00 | 42 | 1002.5 |
| 20260902004501 | 22 | 169 | 22.5 | 0.0 | 0.00 | 0.00 | 0.00 | 43 | 1002.4 |
| 20260902004025 | 21 | 146 | 22.5 | 0.0 | 0.00 | 0.00 | 0.00 | 43 | 1002.5 |
| 20260902003538 | 21 | 126 | 24.1 | 0.0 | 0.00 | 0.00 | 0.00 | 44 | 1002.5 |
| 20260902003048 | 21 | 123 | 25.7 | 0.0 | 0.00 | 0.00 | 0.00 | 43 | 1002.5 |
| 20260902002554 | 21 | 140 | 24.1 | 0.0 | 0.00 | 0.00 | 0.00 | 44 | 1002.5 |
| 20260902002049 | 21 | 121 | 27.4 | 0.0 | 0.00 | 0.00 | 0.00 | 43 | 1002.4 |
| 20260902001604 | 22 | 154 | 25.7 | 0.0 | 0.00 | 0.00 | 0.00 | 42 | 1002.4 |
| 20260902001053 | 22 | 146 | 25.7 | 0.0 | 0.00 | 0.00 | 0.00 | 42 | 1002.5 |
| 20260902000551 | 22 | 130 | 27.4 | 0.0 | 0.00 | 0.00 | 0.00 | 41 | 1002.6 |
| 20260902000100 | 22 | 129 | 25.7 | 0.0 | 0.00 | 0.00 | 0.00 | 41 | 1002.3 |
| 20260901235505 | 22 | 141 | 25.7 | 0.0 | 0.00 | 0.00 | 0.00 | 40 | 1002.4 |
| 20260901235100 | 22 | 142 | 24.1 | 0.0 | 0.00 | 0.00 | 0.00 | 40 | 1002.5 |
| 20260901234504 | 22 | 127 | 20.9 | 0.0 | 0.00 | 0.00 | 0.00 | 40 | 1002.4 |
| 20260901234007 | 23 | 159 | 22.5 | 0.0 | 0.00 | 0.00 | 0.00 | 40 | 1002.3 |
| 20260901233519 | 22 | 125 | 22.5 | 0.0 | 0.00 | 0.00 | 0.00 | 40 | 1002.5 |
| 20260901233049 | 22 | 137 | 24.1 | 0.0 | 0.00 | 0.00 | 0.00 | 39 | 1002.5 |
| 20260901232523 | 22 | 138 | 24.1 | 0.0 | 0.00 | 0.00 | 0.00 | 39 | 1002.6 |
| 20260901232023 | 22 | 138 | 22.5 | 0.0 | 0.00 | 0.00 | 0.00 | 41 | 1002.7 |
| 20260901231541 | 22 | 181 | 24.1 | 0.0 | 0.00 | 0.00 | 0.00 | 40 | 1002.7 |
| 20260901231048 | 22 | 155 | 24.1 | 0.0 | 0.00 | 0.00 | 0.00 | 41 | 1002.6 |
| 20260901230559 | 22 | 120 | 24.1 | 0.0 | 0.00 | 0.00 | 0.00 | 40 | 1002.9 |
| 20260901230124 | 22 | 116 | 24.1 | 0.0 | 0.00 | 0.00 | 0.00 | 40 | 1002.9 |
| 20260901225506 | 23 | 175 | 24.1 | 0.0 | 0.00 | 0.00 | 0.00 | 38 | 1002.9 |
| 20260901225011 | 23 | 170 | 25.7 | 0.0 | 0.00 | 0.00 | 0.00 | 38 | 1002.8 |
| 20260901224603 | 23 | 149 | 24.1 | 0.0 | 0.00 | 0.00 | 0.00 | 37 | 1002.9 |
| 20260901224100 | 23 | 140 | 24.1 | 0.0 | 0.00 | 0.00 | 0.00 | 37 | 1003.2 |
| 20260901223547 | 23 | 136 | 25.7 | 0.0 | 0.00 | 0.00 | 0.00 | 36 | 1003.0 |
| 20260901223045 | 23 | 149 | 25.7 | 0.0 | 0.00 | 0.00 | 0.00 | 36 | 1003.1 |
| 20260901222540 | 23 | 184 | 24.1 | 0.0 | 0.00 | 0.00 | 0.00 | 36 | 1003.2 |
| 20260901222046 | 23 | 165 | 25.7 | 0.0 | 0.00 | 0.00 | 0.00 | 36 | 1003.3 |
| 20260901221557 | 23 | 175 | 25.7 | 0.0 | 0.00 | 0.00 | 0.00 | 37 | 1003.2 |
| 20260901221003 | 23 | 150 | 25.7 | 0.0 | 0.00 | 0.00 | 0.00 | 37 | 1003.1 |
| 20260901220516 | 23 | 98 | 27.4 | 0.0 | 0.00 | 0.00 | 0.00 | 37 | 1003.2 |
| 20260901220043 | 23 | 124 | 25.7 | 0.0 | 0.00 | 0.00 | 0.00 | 36 | 1003.2 |
| 20260901215552 | 23 | 126 | 25.7 | 0.0 | 0.00 | 0.00 | 0.00 | 36 | 1003.3 |
| 20260901215101 | 23 | 129 | 24.1 | 0.0 | 0.00 | 0.00 | 0.00 | 36 | 1003.4 |
| 20260901214517 | 23 | 163 | 22.5 | 0.0 | 0.00 | 0.00 | 0.00 | 34 | 1003.5 |
| 20260901214017 | 23 | 171 | 24.1 | 0.0 | 0.00 | 0.00 | 0.00 | 36 | 1003.7 |
| 20260901213540 | 23 | 174 | 24.1 | 0.0 | 0.00 | 0.00 | 0.00 | 35 | 1003.8 |
| 20260901213116 | 22 | 174 | 22.5 | 0.0 | 0.00 | 0.00 | 0.00 | 36 | 1003.8 |